FW0014 Weather Reports


time (UTC)temp
C
wind
direction
speed
KPH
gust
KPH
rain 1hr
cm
rain 24hr
cm
rain mn
cm
humidity
%
barometer
mb
20260503205018 23 168 17.7 27.4 0.00 0.00 0.00 37 1019.3
20260503204830 24 145 20.9 27.4 0.00 0.00 0.00 38 1020.4
20260503204512 23 138 16.1 27.4 0.00 0.00 0.00 37 1019.5
20260503204325 24 193 17.7 25.7 0.00 0.00 0.00 37 1020.4
20260503204005 24 198 9.7 30.6 0.00 0.00 0.00 36 1019.6
20260503203842 24 180 14.5 30.6 0.00 0.00 0.00 36 1020.7
20260503203538 24 162 17.7 32.2 0.00 0.00 0.00 36 1019.7
20260503203315 24 151 22.5 32.2 0.00 0.00 0.00 37 1020.8
20260503203035 24 156 17.7 32.2 0.00 0.00 0.00 37 1019.6
20260503202830 24 191 17.7 33.8 0.00 0.00 0.00 36 1020.7
20260503202516 24 184 14.5 22.5 0.00 0.00 0.00 38 1019.6
20260503202326 24 206 16.1 20.9 0.00 0.00 0.00 38 1020.7
20260503202051 23 193 12.9 30.6 0.00 0.00 0.00 38 1019.6
20260503201823 24 191 12.9 30.6 0.00 0.00 0.00 37 1020.6
20260503201542 23 152 20.9 30.6 0.00 0.00 0.00 36 1019.7
20260503201318 24 143 19.3 30.6 0.00 0.00 0.00 36 1020.8
20260503201036 24 173 14.5 24.1 0.00 0.00 0.00 38 1019.8
20260503200815 24 154 16.1 24.1 0.00 0.00 0.00 37 1020.9
20260503200519 24 175 17.7 27.4 0.00 0.00 0.00 38 1020.0
20260503200333 24 123 20.9 27.4 0.00 0.00 0.00 37 1021.0
20260503200012 23 152 4.8 20.9 0.00 0.00 0.00 38 1020.0
20260503195847 24 131 4.8 20.9 0.00 0.00 0.00 39 1021.1
20260503195541 23 162 6.4 20.9 0.00 0.00 0.00 37 1020.3
20260503195320 24 172 12.9 20.9 0.00 0.00 0.00 37 1021.4
20260503195001 24 198 14.5 19.3 0.00 0.00 0.00 37 1020.5
20260503194817 24 172 12.9 17.7 0.00 0.00 0.00 39 1021.5
20260503194601 24 179 8.0 19.3 0.00 0.00 0.00 40 1020.6
20260503194314 24 214 14.5 19.3 0.00 0.00 0.00 38 1021.6
20260503194049 23 237 11.3 19.3 0.00 0.00 0.00 39 1020.6
20260503193829 24 217 14.5 19.3 0.00 0.00 0.00 39 1021.6
20260503193540 23 138 6.4 20.9 0.00 0.00 0.00 39 1020.5
20260503193326 24 192 12.9 24.1 0.00 0.00 0.00 38 1021.6
20260503193037 23 206 11.3 24.1 0.00 0.00 0.00 40 1020.7
20260503192822 24 194 12.9 24.1 0.00 0.00 0.00 39 1021.8
20260503192517 23 202 17.7 24.1 0.00 0.00 0.00 40 1020.9
20260503192333 23 149 14.5 24.1 0.00 0.00 0.00 40 1021.8
20260503192049 23 171 16.1 24.1 0.00 0.00 0.00 38 1020.8
20260503191849 24 143 16.1 24.1 0.00 0.00 0.00 39 1021.8
20260503191512 23 184 8.0 24.1 0.00 0.00 0.00 39 1020.8
20260503191323 23 157 8.0 24.1 0.00 0.00 0.00 39 1021.7
20260503191008 23 185 11.3 24.1 0.00 0.00 0.00 40 1020.8
20260503190820 23 219 11.3 22.5 0.00 0.00 0.00 43 1021.9
20260503190559 23 149 14.5 25.7 0.00 0.00 0.00 41 1021.0
20260503190316 23 187 17.7 27.4 0.00 0.00 0.00 41 1022.0
20260503190052 23 131 14.5 27.4 0.00 0.00 0.00 40 1021.0
20260503185831 23 123 6.4 27.4 0.00 0.00 0.00 39 1022.1
20260503185543 23 149 19.3 27.4 0.00 0.00 0.00 38 1021.2
20260503185328 23 122 14.5 25.7 0.00 0.00 0.00 39 1022.1
20260503185033 23 182 12.9 19.3 0.00 0.00 0.00 42 1021.1
20260503184824 23 85 9.7 19.3 0.00 0.00 0.00 41 1022.1
20260503184524 23 145 8.0 24.1 0.00 0.00 0.00 40 1021.2
20260503184319 23 197 12.9 24.1 0.00 0.00 0.00 39 1022.3
20260503184007 23 199 14.5 24.1 0.00 0.00 0.00 40 1021.5
20260503183835 23 188 17.7 24.1 0.00 0.00 0.00 38 1022.5
20260503183537 23 216 6.4 19.3 0.00 0.00 0.00 40 1021.5
20260503183331 23 172 6.4 19.3 0.00 0.00 0.00 38 1022.5
20260503183031 23 179 11.3 19.3 0.00 0.00 0.00 39 1021.6
20260503182826 23 162 11.3 19.3 0.00 0.00 0.00 41 1022.7
20260503182523 23 214 12.9 22.5 0.00 0.00 0.00 42 1021.8
20260503182321 23 177 9.7 27.4 0.00 0.00 0.00 40 1022.7
20260503182018 22 154 14.5 27.4 0.00 0.00 0.00 39 1021.8
20260503181816 23 187 14.5 27.4 0.00 0.00 0.00 40 1022.9
20260503181600 22 221 16.1 27.4 0.00 0.00 0.00 41 1021.9
20260503181315 23 245 11.3 24.1 0.00 0.00 0.00 42 1023.0
20260503181052 23 204 12.9 25.7 0.00 0.00 0.00 43 1022.1
20260503180830 23 224 9.7 25.7 0.00 0.00 0.00 44 1023.2
20260503180544 23 235 12.9 25.7 0.00 0.00 0.00 44 1022.2
20260503180347 23 206 16.1 25.7 0.00 0.00 0.00 43 1023.2
20260503180007 23 207 9.7 24.1 0.00 0.00 0.00 45 1022.4
20260503175821 23 137 8.0 24.1 0.00 0.00 0.00 44 1023.3
20260503175503 22 153 12.9 24.1 0.00 0.00 0.00 43 1022.5
20260503175317 22 137 11.3 19.3 0.00 0.00 0.00 42 1023.4
20260503175056 22 165 12.9 19.3 0.00 0.00 0.00 40 1022.7
20260503174833 23 195 16.1 19.3 0.00 0.00 0.00 41 1023.6
20260503174547 22 193 9.7 22.5 0.00 0.00 0.00 42 1022.8
20260503174347 22 207 6.4 22.5 0.00 0.00 0.00 41 1023.7
20260503174023 22 185 11.3 22.5 0.00 0.00 0.00 39 1022.7
20260503173843 22 219 17.7 22.5 0.00 0.00 0.00 39 1023.8
20260503173550 22 195 6.4 24.1 0.00 0.00 0.00 38 1022.8
20260503173318 22 214 11.3 24.1 0.00 0.00 0.00 41 1023.8
20260503173040 22 216 11.3 24.1 0.00 0.00 0.00 40 1022.9
20260503172833 22 240 14.5 24.1 0.00 0.00 0.00 39 1023.8
20260503172532 22 206 11.3 17.7 0.00 0.00 0.00 39 1022.8
20260503172330 22 222 11.3 20.9 0.00 0.00 0.00 42 1023.7
20260503172055 22 206 9.7 20.9 0.00 0.00 0.00 41 1022.9
20260503171827 22 241 8.0 20.9 0.00 0.00 0.00 41 1023.8
20260503171608 22 233 14.5 20.9 0.00 0.00 0.00 39 1023.0
20260503171340 22 152 11.3 20.9 0.00 0.00 0.00 39 1023.9
20260503171019 22 197 11.3 20.9 0.00 0.00 0.00 43 1023.0
20260503170816 22 225 11.3 25.7 0.00 0.00 0.00 42 1023.9
20260503170501 22 236 11.3 25.7 0.00 0.00 0.00 42 1023.0
20260503170331 22 209 14.5 25.7 0.00 0.00 0.00 42 1024.1
20260503170105 22 206 9.7 24.1 0.00 0.00 0.00 42 1023.1
20260503150831 20 212 12.9 22.5 0.00 0.00 0.00 60 1024.6
20260503150535 19 235 12.9 22.5 0.00 0.00 0.00 60 1023.6
20260503150322 19 237 9.7 22.5 0.00 0.00 0.00 62 1024.5
20260503131323 14 227 4.8 9.7 0.00 0.00 0.00 78 1023.9
20260503131040 13 256 4.8 11.3 0.00 0.00 0.00 78 1023.1
20260503130820 14 231 3.2 4.8 0.00 0.00 0.00 79 1023.8
20260503130534 13 231 1.6 8.0 0.00 0.00 0.00 79 1023.1
20260503130315 13 231 1.6 8.0 0.00 0.00 0.00 79 1023.9
20260503110817 13 237 4.8 8.0 0.00 0.00 0.00 79 1022.9
20260503110512 12 224 3.2 11.3 0.00 0.00 0.00 79 1022.2
20260503110353 12 237 4.8 11.3 0.00 0.00 0.00 79 1023.0
20260503090333 13 240 6.4 8.0 0.00 0.00 0.00 79 1022.6
20260503081532 12 235 6.4 11.3 0.00 0.00 0.00 77 1021.8
20260503081327 12 231 6.4 8.0 0.00 0.00 0.00 77 1022.5
20260503081010 12 236 4.8 8.0 0.00 0.00 0.00 76 1021.8
20260503080825 12 236 6.4 8.0 0.00 0.00 0.00 76 1022.4
20260503080501 12 236 4.8 8.0 0.00 0.00 0.00 76 1021.8
20260503080321 12 235 4.8 8.0 0.00 0.00 0.00 76 1022.4
20260503072826 13 234 6.4 8.0 0.00 0.00 0.00 75 1022.8
20260503072605 12 232 4.8 8.0 0.00 0.00 0.00 75 1022.2
20260503072322 13 240 6.4 8.0 0.00 0.00 0.00 75 1022.8
20260503072054 12 240 4.8 11.3 0.00 0.00 0.00 75 1022.1
20260503071816 13 238 6.4 11.3 0.00 0.00 0.00 75 1022.9
20260503071605 12 245 4.8 11.3 0.00 0.00 0.00 75 1022.2
20260503071332 13 242 6.4 9.7 0.00 0.00 0.00 75 1023.0
20260503071040 12 241 6.4 9.7 0.00 0.00 0.00 75 1022.4
20260503070847 13 245 6.4 11.3 0.00 0.00 0.00 75 1023.1
20260503070506 12 237 4.8 11.3 0.00 0.00 0.00 75 1022.4
20260503070323 13 237 6.4 11.3 0.00 0.00 0.00 75 1023.0
20260503055054 13 112 1.6 3.2 0.00 0.00 0.00 73 1022.8
20260503054829 13 113 1.6 3.2 0.00 0.00 0.00 73 1023.4
20260503054557 13 113 0.0 3.2 0.00 0.00 0.00 73 1022.8
20260503054326 13 113 1.6 4.8 0.00 0.00 0.00 73 1023.4
20260503054038 13 113 0.0 4.8 0.00 0.00 0.00 73 1022.8
20260503053842 13 113 1.6 6.4 0.00 0.00 0.00 73 1023.4
20260503053502 13 112 3.2 6.4 0.00 0.00 0.00 73 1022.8
20260503053317 13 113 3.2 6.4 0.00 0.00 0.00 73 1023.3
20260503053056 13 113 4.8 6.4 0.00 0.00 0.00 73 1022.9
20260503052815 13 113 4.8 6.4 0.00 0.00 0.00 73 1023.4
20260503052546 13 113 3.2 6.4 0.00 0.00 0.00 73 1022.9
20260503052331 13 113 3.2 6.4 0.00 0.00 0.00 73 1023.3
20260503052040 13 113 3.2 6.4 0.00 0.00 0.00 73 1022.9
20260503051827 13 113 3.2 6.4 0.00 0.00 0.00 73 1023.4
20260503051533 13 112 3.2 6.4 0.00 0.00 0.00 73 1022.9
20260503051322 13 113 3.2 4.8 0.00 0.00 0.00 73 1023.4
20260503051101 13 113 3.2 4.8 0.00 0.00 0.00 73 1022.9
20260503050819 13 112 3.2 6.4 0.00 0.00 0.00 73 1023.5
20260503050550 13 113 3.2 6.4 0.00 0.00 0.00 73 1022.9
20260503050332 13 113 3.2 6.4 0.00 0.00 0.00 73 1023.5
20260503050114 13 112 3.2 6.4 0.00 0.00 0.00 72 1022.9
20260503045822 13 113 3.2 4.8 0.00 0.00 0.00 72 1023.5
20260503045532 13 112 3.2 4.8 0.00 0.00 0.00 72 1023.0
20260503045318 13 113 3.2 4.8 0.00 0.00 0.00 72 1023.4
20260503045024 13 112 1.6 4.8 0.00 0.00 0.00 72 1023.0
20260503044833 13 113 3.2 4.8 0.00 0.00 0.00 72 1023.5
20260503044510 13 112 3.2 4.8 0.00 0.00 0.00 72 1022.9
20260503044329 14 113 3.2 4.8 0.00 0.00 0.00 72 1023.6
20260503044001 13 113 3.2 4.8 0.00 0.00 0.00 72 1023.0
20260503043826 14 112 4.8 4.8 0.00 0.00 0.00 72 1023.5
20260503043558 13 113 3.2 4.8 0.00 0.00 0.00 72 1022.9
20260503043321 14 113 3.2 4.8 0.00 0.00 0.00 72 1023.4
20260503043048 13 112 3.2 6.4 0.00 0.00 0.00 72 1022.7
20260503042816 14 113 3.2 6.4 0.00 0.00 0.00 72 1023.4
20260503042539 13 113 1.6 6.4 0.00 0.00 0.00 72 1022.9
20260503042333 14 112 4.8 6.4 0.00 0.00 0.00 72 1023.5
20260503042033 13 113 3.2 4.8 0.00 0.00 0.00 72 1022.9
20260503041830 14 112 3.2 4.8 0.00 0.00 0.00 72 1023.4
20260503041529 13 113 1.6 4.8 0.00 0.00 0.00 72 1022.8
20260503041325 14 113 3.2 4.8 0.00 0.00 0.00 73 1023.4
20260503041023 13 113 3.2 4.8 0.00 0.00 0.00 73 1022.7
20260503040822 14 112 3.2 4.8 0.00 0.00 0.00 73 1023.4
20260503040515 13 113 3.2 4.8 0.00 0.00 0.00 73 1022.7
20260503040318 13 113 3.2 4.8 0.00 0.00 0.00 74 1023.3
20260503040100 13 112 3.2 4.8 0.00 0.00 0.00 74 1022.7
20260503035833 13 113 3.2 3.2 0.00 0.00 0.00 74 1023.2
20260503035551 13 113 1.6 3.2 0.00 0.00 0.00 74 1022.7
20260503035330 13 113 1.6 3.2 0.00 0.00 0.00 74 1023.2
20260503035046 13 113 0.0 0.0 0.00 0.00 0.00 74 1022.7
20260503034828 13 113 0.0 0.0 0.00 0.00 0.00 74 1023.2
20260503034537 13 113 0.0 0.0 0.00 0.00 0.00 74 1022.6
20260503034325 14 113 0.0 0.0 0.00 0.00 0.00 73 1023.1
20260503034030 13 113 0.0 1.6 0.00 0.00 0.00 73 1022.5
20260503033821 14 113 0.0 3.2 0.00 0.00 0.00 73 1023.0
20260503033527 14 113 0.0 3.2 0.00 0.00 0.00 73 1022.5
20260503033318 14 113 0.0 3.2 0.00 0.00 0.00 73 1023.1
20260503033014 14 113 0.0 0.0 0.00 0.00 0.00 72 1022.7
20260503032814 14 113 0.0 0.0 0.00 0.00 0.00 71 1023.1
20260503032504 14 113 0.0 1.6 0.00 0.00 0.00 71 1022.5
20260503032330 15 113 0.0 1.6 0.00 0.00 0.00 71 1023.0
20260503032058 14 112 0.0 1.6 0.00 0.00 0.00 71 1022.4
20260503032001 14 112 0.0 1.6 0.00 0.00 0.00 72 1022.4
20260503031827 15 114 0.0 1.6 0.00 0.00 0.00 72 1023.0
20260503031533 15 113 0.0 1.6 0.00 0.00 0.00 72 1022.4
20260503031339 15 113 0.0 3.2 0.00 0.00 0.00 71 1022.8
20260503031053 15 113 0.0 3.2 0.00 0.00 0.00 70 1022.2
20260503030815 15 113 1.6 3.2 0.00 0.00 0.00 70 1022.7
20260503030545 15 113 0.0 0.0 0.00 0.00 0.00 70 1022.2
20260503030331 15 112 0.0 1.6 0.00 0.00 0.00 70 1022.7
20260503030036 15 113 0.0 3.2 0.00 0.00 0.00 70 1022.1
20260503025827 15 113 0.0 3.2 0.00 0.00 0.00 70 1022.7
20260503025528 15 112 0.0 4.8 0.00 0.00 0.00 69 1022.0
20260503025344 15 113 3.2 4.8 0.00 0.00 0.00 69 1022.5
20260503025056 15 112 3.2 4.8 0.00 0.00 0.00 69 1022.0
20260503024839 15 113 3.2 4.8 0.00 0.00 0.00 69 1022.5
20260503024526 15 113 3.2 4.8 0.00 0.00 0.00 68 1021.9
20260503024341 16 113 3.2 4.8 0.00 0.00 0.00 68 1022.6
20260503024050 15 113 3.2 4.8 0.00 0.00 0.00 68 1022.1
20260503023830 16 113 3.2 4.8 0.00 0.00 0.00 68 1022.6
20260503023542 15 113 3.2 6.4 0.00 0.00 0.00 68 1022.0
20260503023328 16 113 4.8 6.4 0.00 0.00 0.00 68 1022.5
20260503023037 16 112 3.2 6.4 0.00 0.00 0.00 67 1021.9
20260503022823 16 113 4.8 4.8 0.00 0.00 0.00 67 1022.5
20260503022528 16 113 3.2 4.8 0.00 0.00 0.00 66 1021.8
20260503022318 16 113 3.2 4.8 0.00 0.00 0.00 66 1022.3
20260503022022 16 113 3.2 4.8 0.00 0.00 0.00 66 1021.7
20260503021816 16 113 3.2 4.8 0.00 0.00 0.00 65 1022.3
20260503021516 16 113 1.6 3.2 0.00 0.00 0.00 65 1021.7
20260503021333 17 114 3.2 4.8 0.00 0.00 0.00 64 1022.2
20260503021004 16 113 1.6 4.8 0.00 0.00 0.00 63 1021.5
20260503020829 17 113 3.2 4.8 0.00 0.00 0.00 63 1022.1
20260503020556 17 112 1.6 4.8 0.00 0.00 0.00 62 1021.5
20260503020345 17 113 1.6 4.8 0.00 0.00 0.00 61 1022.1
20260503020026 17 113 1.6 4.8 0.00 0.00 0.00 61 1021.6
20260503015819 17 113 3.2 4.8 0.00 0.00 0.00 60 1022.0
20260503015520 17 112 3.2 4.8 0.00 0.00 0.00 59 1021.6
20260503015315 17 113 3.2 3.2 0.00 0.00 0.00 59 1022.1
20260503015017 17 113 1.6 3.2 0.00 0.00 0.00 59 1021.5
20260503014833 18 113 3.2 4.8 0.00 0.00 0.00 59 1022.1
20260503014602 18 112 1.6 4.8 0.00 0.00 0.00 59 1021.5
20260503014328 18 113 3.2 4.8 0.00 0.00 0.00 60 1022.2
20260503014056 18 113 3.2 4.8 0.00 0.00 0.00 58 1021.6
20260503013844 18 113 3.2 4.8 0.00 0.00 0.00 57 1022.2
20260503013530 18 113 1.6 4.8 0.00 0.00 0.00 57 1021.6
20260503013319 19 113 3.2 3.2 0.00 0.00 0.00 57 1022.0
20260503013027 19 112 1.6 3.2 0.00 0.00 0.00 57 1021.3
20260503012815 20 112 1.6 3.2 0.00 0.00 0.00 55 1021.9
20260503012510 20 113 0.0 3.2 0.00 0.00 0.00 55 1021.3
20260503012333 20 113 1.6 3.2 0.00 0.00 0.00 54 1021.9
20260503012002 20 113 1.6 3.2 0.00 0.00 0.00 53 1021.3
20260503011829 20 112 1.6 3.2 0.00 0.00 0.00 52 1021.8
20260503011620 20 113 0.0 1.6 0.00 0.00 0.00 51 1021.2
20260503011326 20 114 0.0 1.6 0.00 0.00 0.00 50 1021.7
20260503011050 20 113 0.0 1.6 0.00 0.00 0.00 51 1021.1
20260503010822 21 113 0.0 3.2 0.00 0.00 0.00 49 1021.5
20260503010542 20 113 0.0 3.2 0.00 0.00 0.00 48 1021.0
20260503010317 21 113 0.0 3.2 0.00 0.00 0.00 47 1021.5
20260503010037 21 113 1.6 4.8 0.00 0.00 0.00 46 1021.0
20260503005854 21 114 1.6 4.8 0.00 0.00 0.00 47 1021.5
20260503005559 21 112 1.6 4.8 0.00 0.00 0.00 47 1020.9
20260503005329 21 113 1.6 4.8 0.00 0.00 0.00 46 1021.4
20260503005048 21 29 1.6 3.2 0.00 0.00 0.00 46 1021.0
20260503004826 21 29 1.6 3.2 0.00 0.00 0.00 48 1021.5
20260503004547 21 29 0.0 1.6 0.00 0.00 0.00 49 1020.9
20260503004322 22 30 0.0 0.0 0.00 0.00 0.00 49 1021.4
20260503004038 22 29 0.0 0.0 0.00 0.00 0.00 48 1021.0
20260503003818 22 29 0.0 0.0 0.00 0.00 0.00 47 1021.5
20260503003520 22 30 0.0 0.0 0.00 0.00 0.00 46 1021.0
20260503003352 22 29 0.0 0.0 0.00 0.00 0.00 45 1021.4
20260503003053 22 30 0.0 0.0 0.00 0.00 0.00 46 1021.0
20260503002828 22 30 0.0 0.0 0.00 0.00 0.00 46 1021.3
20260503002544 22 29 0.0 0.0 0.00 0.00 0.00 46 1020.9
20260503002324 22 29 0.0 1.6 0.00 0.00 0.00 46 1021.3
20260503002034 22 29 0.0 3.2 0.00 0.00 0.00 46 1020.9
20260503001819 22 29 0.0 3.2 0.00 0.00 0.00 46 1021.4
20260503001528 22 29 0.0 3.2 0.00 0.00 0.00 45 1021.0
20260503001315 22 29 0.0 3.2 0.00 0.00 0.00 45 1021.4
20260503001020 21 29 0.0 3.2 0.00 0.00 0.00 46 1021.1
20260503000831 22 29 1.6 3.2 0.00 0.00 0.00 46 1021.5
20260503000507 21 30 0.0 3.2 0.00 0.00 0.00 48 1021.1
20260503000328 22 29 0.0 3.2 0.00 0.00 0.00 49 1021.5
20260503000105 21 29 1.6 3.2 0.00 0.00 0.00 48 1021.1
20260502235824 21 30 1.6 3.2 0.00 0.00 0.00 48 1021.5
20260502235548 21 29 1.6 4.8 0.00 0.00 0.00 48 1021.1
20260502235318 21 29 1.6 4.8 0.00 0.00 0.00 47 1021.5
20260502235020 21 30 1.6 4.8 0.00 0.00 0.00 47 1021.0
20260502234816 21 30 3.2 4.8 0.00 0.00 0.00 47 1021.5
20260502234513 21 29 0.0 4.8 0.00 0.00 0.00 48 1021.0
20260502234331 21 29 1.6 4.8 0.00 0.00 0.00 49 1021.4
20260502234056 21 29 0.0 3.2 0.00 0.00 0.00 48 1021.0
20260502233826 21 29 0.0 4.8 0.00 0.00 0.00 48 1021.4
20260502233548 21 29 0.0 6.4 0.00 0.00 0.00 47 1021.0
20260502233343 21 29 1.6 6.4 0.00 0.00 0.00 48 1021.4
20260502233020 21 29 1.6 6.4 0.00 0.00 0.00 47 1021.0
20260502232819 21 29 4.8 6.4 0.00 0.00 0.00 46 1021.5
20260502232502 21 359 0.0 4.8 0.00 0.00 0.00 45 1021.0
20260502232315 22 329 0.0 0.0 0.00 0.00 0.00 44 1021.5
20260502232035 21 70 0.0 0.0 0.00 0.00 0.00 43 1021.0
20260502231832 22 31 0.0 0.0 0.00 0.00 0.00 43 1021.5
20260502231534 21 19 0.0 0.0 0.00 0.00 0.00 45 1021.1
20260502231327 22 168 0.0 0.0 0.00 0.00 0.00 44 1021.5
20260502231010 21 64 0.0 0.0 0.00 0.00 0.00 45 1021.1
20260502230825 22 47 0.0 0.0 0.00 0.00 0.00 45 1021.4
20260502230602 21 69 0.0 0.0 0.00 0.00 0.00 44 1021.1
20260502230322 22 112 0.0 0.0 0.00 0.00 0.00 45 1021.5
20260502230054 22 68 0.0 0.0 0.00 0.00 0.00 44 1021.1
20260502225818 22 38 0.0 0.0 0.00 0.00 0.00 46 1021.4
20260502225543 22 18 0.0 0.0 0.00 0.00 0.00 46 1021.0
20260502225333 22 145 0.0 0.0 0.00 0.00 0.00 46 1021.3
20260502225012 21 146 0.0 0.0 0.00 0.00 0.00 46 1020.9
20260502224829 22 145 0.0 0.0 0.00 0.00 0.00 45 1021.3
20260502224504 21 129 0.0 0.0 0.00 0.00 0.00 46 1021.0
20260502224325 22 128 0.0 0.0 0.00 0.00 0.00 46 1021.3
20260502224100 21 128 0.0 0.0 0.00 0.00 0.00 46 1021.1
20260502223821 22 128 0.0 0.0 0.00 0.00 0.00 46 1021.4
20260502223550 21 128 0.0 0.0 0.00 0.00 0.00 46 1021.0
20260502223317 22 128 0.0 0.0 0.00 0.00 0.00 47 1021.5
20260502223040 22 100 0.0 0.0 0.00 0.00 0.00 46 1021.1
20260502222852 22 46 0.0 0.0 0.00 0.00 0.00 46 1021.4
20260502222506 22 117 0.0 0.0 0.00 0.00 0.00 46 1021.1
20260502222348 22 75 0.0 0.0 0.00 0.00 0.00 46 1021.4
20260502222038 22 4 0.0 0.0 0.00 0.00 0.00 47 1021.2
20260502221823 22 68 0.0 0.0 0.00 0.00 0.00 46 1021.5
20260502221532 22 55 0.0 0.0 0.00 0.00 0.00 44 1021.1
20260502221336 22 69 0.0 0.0 0.00 0.00 0.00 45 1021.5
20260502221056 22 72 0.0 0.0 0.00 0.00 0.00 45 1021.2
20260502220832 22 56 0.0 0.0 0.00 0.00 0.00 44 1021.6
20260502220548 22 93 0.0 0.0 0.00 0.00 0.00 44 1021.2
20260502220328 22 316 0.0 0.0 0.00 0.00 0.00 44 1021.5
20260502220012 21 359 0.0 0.0 0.00 0.00 0.00 45 1021.3
20260502215824 22 126 0.0 0.0 0.00 0.00 0.00 44 1021.6
20260502215506 21 294 0.0 0.0 0.00 0.00 0.00 43 1021.4
20260502215321 22 323 0.0 0.0 0.00 0.00 0.00 44 1021.6
20260502215059 21 23 0.0 0.0 0.00 0.00 0.00 44 1021.5
20260502214817 22 4 0.0 0.0 0.00 0.00 0.00 45 1021.8
20260502214552 21 53 0.0 0.0 0.00 0.00 0.00 45 1021.5
20260502214314 22 53 0.0 0.0 0.00 0.00 0.00 45 1021.8
20260502214046 21 308 0.0 0.0 0.00 0.00 0.00 44 1021.5
20260502213831 22 39 0.0 0.0 0.00 0.00 0.00 46 1021.9
20260502213541 21 85 0.0 0.0 0.00 0.00 0.00 45 1021.7
20260502213325 21 85 0.0 0.0 0.00 0.00 0.00 43 1022.0
20260502213038 21 56 0.0 0.0 0.00 0.00 0.00 45 1021.8
20260502212821 22 359 0.0 0.0 0.00 0.00 0.00 46 1022.2
20260502212522 21 99 0.0 0.0 0.00 0.00 0.00 44 1021.8
20260502212316 22 62 0.0 0.0 0.00 0.00 0.00 44 1022.3
20260502212016 21 54 0.0 0.0 0.00 0.00 0.00 45 1022.0
20260502211832 22 123 0.0 0.0 0.00 0.00 0.00 45 1022.1
20260502211600 21 123 0.0 0.0 0.00 0.00 0.00 45 1022.0
20260502211329 21 66 0.0 0.0 0.00 0.00 0.00 47 1022.2
20260502211051 21 8 0.0 6.4 0.00 0.00 0.00 44 1022.0
20260502210825 21 43 0.0 9.7 0.00 0.00 0.00 44 1022.3
20260502210545 21 54 0.0 9.7 0.00 0.00 0.00 45 1022.0
20260502210318 21 64 1.6 16.1 0.00 0.00 0.00 45 1022.3
20260502210020 21 64 6.4 17.7 0.00 0.00 0.00 45 1022.1
20260502205814 21 16 4.8 17.7 0.00 0.00 0.00 48 1022.5
20260502205504 21 50 9.7 20.9 0.00 0.00 0.00 46 1022.2
20260502205330 21 62 9.7 20.9 0.00 0.00 0.00 46 1022.6
20260502205057 21 45 12.9 20.9 0.00 0.00 0.00 44 1022.3